Location: White Mills Observatory
(37.5374°N, 86.0303°W)
Time: 16:00:34
(UTC-04:00)

HST - Visible Passes

Search period start: 31 October 2014 00:00
Search period end: 09 November 2014 23:00
Orbit: 546 x 550 km, 28.5° (Epoch: 31 October)

Date Brightness Start Highest point End Pass type
(mag) Time Alt. Az. Time Alt. Az. Time Alt. Az.
31 Oct 2.6 20:03:57 10° WSW 20:07:15 23° S 20:09:30 15° SE visible
01 Nov 2.8 19:56:37 10° WSW 19:59:49 21° S 20:02:40 12° SE visible
02 Nov 2.9 18:49:19 10° WSW 18:52:22 20° S 18:55:25 10° SE visible
03 Nov 3.1 18:42:06 10° SW 18:44:55 17° SSW 18:47:43 10° SSE visible
04 Nov 3.4 18:34:59 10° SW 18:37:26 15° SSW 18:39:52 10° SSE visible
05 Nov 3.5 18:28:04 10° SW 18:29:56 13° SSW 18:31:47 10° S visible
06 Nov 3.8 18:21:53 10° SSW 18:22:25 10° SSW 18:22:56 10° SSW visible
